CTV936 WIII-WIBB

Flight info

Callsign CTV936
Flight time 1h 20m
Altitude 34000
Route GOMEL T10 OVSET
Aircraft A320/M-SDE3FGHIRWY/LB1

Departure

Time 2026-05-06 03:03
Airport Soekarno-Hatta International Airport (WIII)

Arrival

Time 2026-05-06 04:23
Airport Sultan Syarif Kasim II International Airport / Roesmin Nurjadin AFB (WIBB)
Time Latitude Longitude Altitude Speed Heading
2026-05-06 02:47 -6.13239 106.65295 38 ft 0 kts 338°
2026-05-06 02:51 -6.13255 106.65302 37 ft 4 kts 333°
2026-05-06 02:52 -6.13278 106.65316 35 ft 4 kts 315°
2026-05-06 02:52 -6.13291 106.65337 35 ft 4 kts 264°
2026-05-06 02:52 -6.13289 106.65348 35 ft 1 kts 248°
2026-05-06 02:58 -6.13315 106.65284 38 ft 17 kts 248°
2026-05-06 02:58 -6.13387 106.65209 38 ft 14 kts 178°
2026-05-06 02:58 -6.13450 106.65243 38 ft 10 kts 169°
2026-05-06 02:58 -6.13513 106.65261 38 ft 8 kts 161°
2026-05-06 02:59 -6.13580 106.65278 38 ft 13 kts 193°
2026-05-06 02:59 -6.13627 106.65177 38 ft 19 kts 249°
2026-05-06 02:59 -6.13681 106.65047 38 ft 22 kts 248°
2026-05-06 02:59 -6.13739 106.64896 38 ft 25 kts 247°
2026-05-06 03:00 -6.13808 106.64723 38 ft 29 kts 249°
2026-05-06 03:00 -6.13876 106.64558 38 ft 22 kts 246°
2026-05-06 03:00 -6.13936 106.64406 38 ft 25 kts 249°
2026-05-06 03:00 -6.14005 106.64265 38 ft 21 kts 216°
2026-05-06 03:01 -6.14127 106.64278 39 ft 5 kts 166°
2026-05-06 03:01 -6.14166 106.64290 40 ft 7 kts 150°
2026-05-06 03:01 -6.14192 106.64329 40 ft 7 kts 106°
2026-05-06 03:01 -6.14225 106.64383 40 ft 11 kts 123°
2026-05-06 03:02 -6.14208 106.64467 39 ft 15 kts 69°
2026-05-06 03:02 -6.14116 106.64688 36 ft 66 kts 69°
2026-05-06 03:02 -6.13871 106.65308 38 ft 125 kts 69°
2026-05-06 03:02 -6.13486 106.66267 98 ft 165 kts 68°
2026-05-06 03:03 -6.13065 106.67304 824 ft 161 kts 68°
2026-05-06 03:03 -6.12642 106.68381 1352 ft 169 kts 70°
2026-05-06 03:03 -6.12185 106.69542 1671 ft 190 kts 70°
2026-05-06 03:03 -6.11671 106.70845 1924 ft 212 kts 70°
2026-05-06 03:04 -6.11136 106.72281 2388 ft 225 kts 78°
2026-05-06 03:04 -6.11279 106.73824 3137 ft 229 kts 117°
2026-05-06 03:04 -6.12354 106.75004 3912 ft 232 kts 140°
2026-05-06 03:04 -6.13731 106.75859 4704 ft 237 kts 159°
2026-05-06 03:05 -6.15372 106.76124 5449 ft 243 kts 181°
2026-05-06 03:05 -6.17038 106.75750 6194 ft 250 kts 202°
2026-05-06 03:05 -6.18480 106.74755 6896 ft 256 kts 225°
2026-05-06 03:05 -6.19437 106.73233 7583 ft 262 kts 250°
2026-05-06 03:06 -6.19859 106.71442 8300 ft 265 kts 258°
2026-05-06 03:06 -6.20229 106.69615 9026 ft 268 kts 258°
2026-05-06 03:06 -6.20612 106.67736 9485 ft 284 kts 258°
2026-05-06 03:06 -6.21018 106.65753 9999 ft 295 kts 258°
2026-05-06 03:07 -6.21436 106.63715 10631 ft 299 kts 258°
2026-05-06 03:07 -6.21859 106.61656 11292 ft 303 kts 258°
2026-05-06 03:07 -6.22291 106.59570 11959 ft 306 kts 258°
2026-05-06 03:07 -6.22724 106.57462 12626 ft 310 kts 258°
2026-05-06 03:08 -6.23052 106.55314 13270 ft 314 kts 269°
2026-05-06 03:08 -6.22823 106.53130 13886 ft 317 kts 286°
2026-05-06 03:08 -6.21986 106.51039 14125 ft 333 kts 303°
2026-05-06 03:08 -6.20507 106.49172 14237 ft 351 kts 314°
2026-05-06 03:09 -6.18804 106.47322 14361 ft 370 kts 314°
2026-05-06 03:09 -6.17022 106.45375 14563 ft 385 kts 314°
2026-05-06 03:09 -6.15226 106.43396 15012 ft 390 kts 314°
2026-05-06 03:09 -6.13377 106.41347 15548 ft 393 kts 313°
2026-05-06 03:10 -6.11557 106.39330 16075 ft 395 kts 314°
2026-05-06 03:10 -6.09513 106.37490 16590 ft 396 kts 326°
2026-05-06 03:10 -6.07138 106.36100 17109 ft 396 kts 338°
2026-05-06 03:10 -6.04533 106.35211 17621 ft 397 kts 347°
2026-05-06 03:11 -6.01854 106.34511 18122 ft 399 kts 347°
2026-05-06 03:11 -5.99155 106.33800 18547 ft 402 kts 346°
2026-05-06 03:11 -5.96449 106.33083 18955 ft 404 kts 346°
2026-05-06 03:11 -5.93722 106.32356 19360 ft 407 kts 346°
2026-05-06 03:12 -5.90981 106.31626 19755 ft 409 kts 346°
2026-05-06 03:12 -5.88217 106.30890 20151 ft 412 kts 346°
2026-05-06 03:12 -5.85435 106.30149 20537 ft 414 kts 346°
2026-05-06 03:12 -5.82643 106.29406 20927 ft 417 kts 346°
2026-05-06 03:13 -5.79827 106.28658 21307 ft 419 kts 346°
2026-05-06 03:13 -5.76997 106.27906 21677 ft 422 kts 345°
2026-05-06 03:13 -5.74240 106.26868 22037 ft 426 kts 335°
2026-05-06 03:13 -5.71681 106.25337 22399 ft 430 kts 324°
2026-05-06 03:14 -5.69325 106.23471 22745 ft 433 kts 322°
2026-05-06 03:14 -5.66965 106.21578 23092 ft 436 kts 322°
2026-05-06 03:14 -5.64588 106.19680 23440 ft 438 kts 322°
2026-05-06 03:14 -5.62192 106.17771 23729 ft 440 kts 323°
2026-05-06 03:15 -5.59786 106.15857 24018 ft 442 kts 322°
2026-05-06 03:15 -5.57366 106.13933 24307 ft 444 kts 323°
2026-05-06 03:15 -5.54940 106.12001 24605 ft 446 kts 323°
2026-05-06 03:15 -5.52499 106.10056 24875 ft 448 kts 322°
2026-05-06 03:16 -5.50086 106.08133 25136 ft 450 kts 322°
2026-05-06 03:16 -5.47630 106.06176 25420 ft 452 kts 322°
2026-05-06 03:16 -5.45162 106.04208 25692 ft 454 kts 322°
2026-05-06 03:16 -5.42686 106.02230 25954 ft 456 kts 322°
2026-05-06 03:17 -5.40201 106.00246 26230 ft 458 kts 322°
2026-05-06 03:17 -5.37697 105.98252 26502 ft 459 kts 322°
2026-05-06 03:17 -5.35183 105.96254 26749 ft 462 kts 322°
2026-05-06 03:17 -5.32658 105.94247 27022 ft 464 kts 322°
2026-05-06 03:18 -5.30125 105.92239 27282 ft 465 kts 322°
2026-05-06 03:18 -5.27580 105.90221 27544 ft 467 kts 322°
2026-05-06 03:18 -5.25023 105.88189 27757 ft 469 kts 322°
2026-05-06 03:18 -5.22464 105.86153 28014 ft 471 kts 322°
2026-05-06 03:19 -5.19893 105.84104 28252 ft 473 kts 322°
2026-05-06 03:19 -5.18180 105.82748 28391 ft 474 kts 323°
2026-05-06 03:19 -5.15545 105.80756 28640 ft 475 kts 324°
2026-05-06 03:19 -5.12856 105.78825 28866 ft 477 kts 326°
2026-05-06 03:20 -5.07377 105.75038 29335 ft 479 kts 326°
2026-05-06 03:20 -5.04626 105.73137 29569 ft 481 kts 326°
2026-05-06 03:20 -5.00996 105.70593 29978 ft 480 kts 326°
2026-05-06 03:21 -4.99159 105.69291 30189 ft 479 kts 325°
2026-05-06 03:21 -4.96449 105.67357 30481 ft 477 kts 325°
2026-05-06 03:21 -4.93748 105.65423 30775 ft 476 kts 325°
2026-05-06 03:21 -4.91052 105.63492 31058 ft 475 kts 325°
2026-05-06 03:22 -4.88364 105.61572 31346 ft 475 kts 325°
2026-05-06 03:22 -4.85674 105.59658 31635 ft 474 kts 325°
2026-05-06 03:22 -4.83019 105.57776 31918 ft 473 kts 325°
2026-05-06 03:22 -4.80335 105.55875 32197 ft 472 kts 325°
2026-05-06 03:23 -4.77656 105.53975 32510 ft 471 kts 325°
2026-05-06 03:23 -4.74987 105.52080 32819 ft 470 kts 325°
2026-05-06 03:23 -4.72318 105.50185 33119 ft 469 kts 325°
2026-05-06 03:23 -4.69659 105.48295 33428 ft 468 kts 325°
2026-05-06 03:24 -4.67001 105.46408 33737 ft 467 kts 325°
2026-05-06 03:24 -4.64346 105.44525 33873 ft 467 kts 326°
2026-05-06 03:24 -4.59043 105.40754 33899 ft 466 kts 325°
2026-05-06 03:25 -4.53757 105.36993 33896 ft 466 kts 325°
2026-05-06 03:25 -4.48465 105.33236 33899 ft 465 kts 326°
2026-05-06 03:26 -4.43213 105.29516 33893 ft 466 kts 326°
2026-05-06 03:26 -4.37924 105.25768 33894 ft 466 kts 325°
2026-05-06 03:27 -4.32628 105.22002 33896 ft 466 kts 325°
2026-05-06 03:27 -4.27334 105.18245 33892 ft 466 kts 325°
2026-05-06 03:28 -4.22027 105.14484 33895 ft 467 kts 325°
2026-05-06 03:28 -4.16725 105.10727 33894 ft 467 kts 325°
2026-05-06 03:29 -4.11415 105.06970 33893 ft 467 kts 325°
2026-05-06 03:29 -4.06539 105.02737 33893 ft 467 kts 317°
2026-05-06 03:30 -4.01797 104.98285 33893 ft 467 kts 317°
2026-05-06 03:30 -3.97047 104.93843 33890 ft 467 kts 317°
2026-05-06 03:31 -3.92290 104.89400 33892 ft 467 kts 317°
2026-05-06 03:31 -3.87540 104.84957 33888 ft 468 kts 317°
2026-05-06 03:32 -3.82783 104.80507 33887 ft 468 kts 317°
2026-05-06 03:32 -3.78012 104.76048 33885 ft 469 kts 317°
2026-05-06 03:33 -3.73247 104.71592 33890 ft 469 kts 317°
2026-05-06 03:33 -3.68512 104.67160 33886 ft 469 kts 317°
2026-05-06 03:34 -3.63741 104.62698 33892 ft 469 kts 317°
2026-05-06 03:34 -3.58968 104.58237 33893 ft 470 kts 317°
2026-05-06 03:35 -3.54192 104.53777 33891 ft 470 kts 317°
2026-05-06 03:35 -3.49403 104.49301 33889 ft 470 kts 317°
2026-05-06 03:36 -3.44619 104.44828 33889 ft 470 kts 317°
2026-05-06 03:36 -3.39833 104.40363 33886 ft 471 kts 317°
2026-05-06 03:37 -3.35081 104.35920 33886 ft 471 kts 317°
2026-05-06 03:37 -3.30289 104.31444 33887 ft 471 kts 317°
2026-05-06 03:38 -3.25497 104.26978 33885 ft 471 kts 317°
2026-05-06 03:38 -3.20711 104.22510 33888 ft 470 kts 317°
2026-05-06 03:39 -3.15935 104.18045 33893 ft 469 kts 317°
2026-05-06 03:39 -3.11162 104.13588 33893 ft 469 kts 317°
2026-05-06 03:40 -3.06402 104.09142 33899 ft 468 kts 317°
2026-05-06 03:40 -3.01650 104.04707 33898 ft 467 kts 317°
2026-05-06 03:41 -2.96904 104.00281 33897 ft 467 kts 317°
2026-05-06 03:41 -2.92186 103.95879 33894 ft 466 kts 317°
2026-05-06 03:42 -2.87437 103.91451 33888 ft 466 kts 317°
2026-05-06 03:42 -2.82695 103.87022 33884 ft 467 kts 317°
2026-05-06 03:43 -2.77949 103.82590 33877 ft 467 kts 317°
2026-05-06 03:43 -2.73185 103.78157 33875 ft 467 kts 317°
2026-05-06 03:44 -2.68417 103.73719 33876 ft 468 kts 317°
2026-05-06 03:44 -2.63649 103.69271 33874 ft 469 kts 317°
2026-05-06 03:45 -2.58875 103.64820 33875 ft 469 kts 317°
2026-05-06 03:45 -2.54133 103.60408 33876 ft 469 kts 317°
2026-05-06 03:46 -2.49350 103.55956 33875 ft 470 kts 317°
2026-05-06 03:46 -2.44569 103.51492 33881 ft 470 kts 317°
2026-05-06 03:47 -2.39785 103.47031 33880 ft 470 kts 317°
2026-05-06 03:47 -2.34992 103.42566 33879 ft 471 kts 317°
2026-05-06 03:48 -2.30195 103.38091 33877 ft 471 kts 317°
2026-05-06 03:48 -2.25427 103.33634 33880 ft 472 kts 317°
2026-05-06 03:49 -2.20626 103.29147 33881 ft 473 kts 317°
2026-05-06 03:49 -2.15823 103.24656 33879 ft 473 kts 317°
2026-05-06 03:50 -2.11010 103.20160 33886 ft 474 kts 317°
2026-05-06 03:50 -2.06183 103.15663 33888 ft 474 kts 317°
2026-05-06 03:51 -2.01360 103.11158 33889 ft 474 kts 317°
2026-05-06 03:51 -1.96533 103.06651 33892 ft 475 kts 317°
2026-05-06 03:52 -1.91737 103.02175 33895 ft 475 kts 317°
2026-05-06 03:52 -1.86912 102.97663 33896 ft 475 kts 317°
2026-05-06 03:53 -1.82086 102.93156 33899 ft 475 kts 317°
2026-05-06 03:53 -1.77254 102.88645 33900 ft 475 kts 317°
2026-05-06 03:54 -1.72426 102.84141 33907 ft 475 kts 317°
2026-05-06 03:54 -1.67594 102.79641 33909 ft 474 kts 317°
2026-05-06 03:55 -1.62802 102.75173 33912 ft 474 kts 317°
2026-05-06 03:55 -1.57871 102.70816 33915 ft 473 kts 326°
2026-05-06 03:56 -1.52002 102.67949 33923 ft 470 kts 343°
2026-05-06 03:56 -1.45721 102.66111 33925 ft 469 kts 343°
2026-05-06 03:57 -1.39464 102.64264 33929 ft 469 kts 343°
2026-05-06 03:57 -1.33213 102.62419 33933 ft 468 kts 343°
2026-05-06 03:58 -1.26977 102.60574 33937 ft 467 kts 343°
2026-05-06 03:58 -1.20752 102.58738 33934 ft 466 kts 343°
2026-05-06 03:59 -1.14542 102.56912 33925 ft 465 kts 343°
2026-05-06 03:59 -1.08323 102.55084 33735 ft 466 kts 343°
2026-05-06 04:00 -1.05215 102.54167 33467 ft 466 kts 343°
2026-05-06 04:00 -1.02152 102.53265 33217 ft 466 kts 343°
2026-05-06 04:00 -0.99040 102.52349 32712 ft 467 kts 344°
2026-05-06 04:00 -0.95892 102.51424 31540 ft 477 kts 344°
2026-05-06 04:01 -0.92688 102.50481 30496 ft 482 kts 345°
2026-05-06 04:01 -0.89438 102.49523 29260 ft 491 kts 345°
2026-05-06 04:01 -0.86165 102.48557 28606 ft 485 kts 345°
2026-05-06 04:01 -0.82950 102.47607 27889 ft 479 kts 345°
2026-05-06 04:02 -0.79761 102.46666 27163 ft 475 kts 345°
2026-05-06 04:02 -0.76604 102.45734 26447 ft 471 kts 345°
2026-05-06 04:02 -0.73474 102.44810 25748 ft 467 kts 345°
2026-05-06 04:02 -0.70405 102.43906 25069 ft 464 kts 345°
2026-05-06 04:03 -0.67327 102.42999 24381 ft 461 kts 345°
2026-05-06 04:03 -0.64250 102.42093 23700 ft 459 kts 345°
2026-05-06 04:03 -0.61193 102.41192 22947 ft 456 kts 345°
2026-05-06 04:03 -0.58188 102.40214 22322 ft 452 kts 339°
2026-05-06 04:04 -0.55415 102.38750 21720 ft 449 kts 328°
2026-05-06 04:04 -0.53009 102.36801 21258 ft 443 kts 317°
2026-05-06 04:04 -0.50811 102.34665 20774 ft 436 kts 317°
2026-05-06 04:04 -0.48674 102.32596 20305 ft 430 kts 317°
2026-05-06 04:05 -0.46538 102.30529 19832 ft 424 kts 317°
2026-05-06 04:05 -0.44433 102.28493 19378 ft 419 kts 317°
2026-05-06 04:05 -0.42347 102.26475 18924 ft 415 kts 317°
2026-05-06 04:05 -0.40286 102.24478 18472 ft 411 kts 317°
2026-05-06 04:06 -0.38241 102.22493 17994 ft 408 kts 317°
2026-05-06 04:06 -0.36210 102.20519 17528 ft 405 kts 316°
2026-05-06 04:06 -0.34199 102.18560 17092 ft 402 kts 316°
2026-05-06 04:06 -0.32230 102.16644 16663 ft 399 kts 316°
2026-05-06 04:07 -0.30242 102.14716 16216 ft 396 kts 316°
2026-05-06 04:07 -0.28270 102.12808 15783 ft 394 kts 316°
2026-05-06 04:07 -0.26304 102.10908 15375 ft 391 kts 316°
2026-05-06 04:07 -0.24356 102.09025 14969 ft 388 kts 316°
2026-05-06 04:08 -0.22419 102.07157 14559 ft 386 kts 316°
2026-05-06 04:08 -0.20504 102.05308 14273 ft 378 kts 316°
2026-05-06 04:08 -0.18654 102.03518 14158 ft 358 kts 316°
2026-05-06 04:08 -0.16922 102.01837 14005 ft 336 kts 316°
2026-05-06 04:09 -0.15275 102.00237 13576 ft 326 kts 316°
2026-05-06 04:09 -0.13677 101.98689 12985 ft 322 kts 316°
2026-05-06 04:09 -0.12076 101.97142 12478 ft 317 kts 316°
2026-05-06 04:09 -0.10493 101.95616 12164 ft 315 kts 316°
2026-05-06 04:10 -0.08916 101.94092 11835 ft 313 kts 316°
2026-05-06 04:10 -0.07355 101.92583 11500 ft 312 kts 316°
2026-05-06 04:10 -0.05800 101.91077 11173 ft 310 kts 316°
2026-05-06 04:10 -0.04257 101.89580 10851 ft 308 kts 316°
2026-05-06 04:11 -0.02741 101.88109 10528 ft 307 kts 316°
2026-05-06 04:11 -0.01217 101.86630 10206 ft 305 kts 316°
2026-05-06 04:11 0.00303 101.85153 9888 ft 303 kts 316°
2026-05-06 04:11 0.01809 101.83689 9548 ft 302 kts 315°
2026-05-06 04:12 0.03311 101.82229 9219 ft 299 kts 316°
2026-05-06 04:12 0.04800 101.80787 8911 ft 298 kts 315°
2026-05-06 04:12 0.05784 101.79834 8701 ft 296 kts 315°
2026-05-06 04:12 0.07261 101.78405 8395 ft 295 kts 315°
2026-05-06 04:13 0.09043 101.76375 7985 ft 292 kts 301°
2026-05-06 04:13 0.09668 101.75166 7795 ft 290 kts 292°
2026-05-06 04:13 0.10696 101.72713 7435 ft 288 kts 292°
2026-05-06 04:13 0.11223 101.71464 7253 ft 287 kts 292°
2026-05-06 04:14 0.11998 101.69634 6987 ft 285 kts 292°
2026-05-06 04:14 0.12771 101.67812 6711 ft 284 kts 292°
2026-05-06 04:14 0.13540 101.66002 6445 ft 282 kts 292°
2026-05-06 04:14 0.14295 101.64222 6175 ft 281 kts 292°
2026-05-06 04:15 0.15055 101.62431 5902 ft 280 kts 292°
2026-05-06 04:15 0.15815 101.60643 5636 ft 279 kts 292°
2026-05-06 04:15 0.16570 101.58862 5371 ft 277 kts 292°
2026-05-06 04:15 0.17325 101.57086 5114 ft 276 kts 292°
2026-05-06 04:16 0.18074 101.55326 4851 ft 275 kts 292°
2026-05-06 04:16 0.18810 101.53561 4594 ft 274 kts 288°
2026-05-06 04:16 0.19200 101.51711 4318 ft 271 kts 272°
2026-05-06 04:16 0.19285 101.49853 4031 ft 270 kts 272°
2026-05-06 04:17 0.19633 101.48014 3748 ft 270 kts 289°
2026-05-06 04:17 0.20513 101.46359 3480 ft 270 kts 307°
2026-05-06 04:17 0.21836 101.45059 3325 ft 262 kts 324°
2026-05-06 04:17 0.23412 101.44229 3128 ft 253 kts 341°
2026-05-06 04:18 0.25099 101.43884 3020 ft 241 kts 357°
2026-05-06 04:18 0.26726 101.43903 3020 ft 227 kts
2026-05-06 04:18 0.28239 101.43944 3025 ft 215 kts
2026-05-06 04:18 0.29695 101.43985 2918 ft 204 kts
2026-05-06 04:19 0.31093 101.44024 2670 ft 198 kts
2026-05-06 04:19 0.32424 101.44062 2428 ft 184 kts
2026-05-06 04:19 0.33657 101.44097 2227 ft 169 kts
2026-05-06 04:19 0.34790 101.44129 1996 ft 156 kts
2026-05-06 04:20 0.35860 101.44160 1799 ft 151 kts
2026-05-06 04:20 0.36889 101.44189 1608 ft 149 kts
2026-05-06 04:20 0.37927 101.44219 1418 ft 149 kts
2026-05-06 04:20 0.38959 101.44248 1230 ft 148 kts
2026-05-06 04:21 0.39986 101.44277 1041 ft 148 kts
2026-05-06 04:21 0.41012 101.44307 870 ft 146 kts
2026-05-06 04:21 0.42024 101.44336 689 ft 145 kts
2026-05-06 04:21 0.43028 101.44364 503 ft 143 kts
2026-05-06 04:22 0.44019 101.44393 312 ft 142 kts
2026-05-06 04:22 0.45004 101.44425 132 ft 138 kts
2026-05-06 04:22 0.45732 101.44443 124 ft 65 kts
2026-05-06 04:23 0.46052 101.44453 127 ft 19 kts
2026-05-06 04:23 0.46192 101.44460 128 ft 22 kts
2026-05-06 04:23 0.46352 101.44464 126 ft 19 kts
2026-05-06 04:23 0.46379 101.44565 128 ft 17 kts 93°
2026-05-06 04:24 0.46436 101.44608 126 ft 11 kts 52°
2026-05-06 04:24 0.46442 101.44673 127 ft 2 kts 92°
2026-05-06 04:24 0.46441 101.44681 127 ft 0 kts 93°